Time,TemperatureF,DewpointF,PressureIn,WindDirection,WindDirectionDegrees,WindSpeedMPH,WindSpeedGustMPH,Humidity,HourlyPrecipIn,Conditions,Clouds,dailyrainin,SolarRadiationWatts/m^2,SoftwareType,DateUTC
2013-05-03 00:01:00,63.0,44.0,30.23,ESE,107,0.0,2.0,50,0.00,,,0.00,0,WxPro DR1,2013-05-03 04:01:00,
2013-05-03 00:06:00,62.8,43.4,30.23,ESE,107,0.0,2.0,49,0.00,,,0.00,0,WxPro DR1,2013-05-03 04:06:00,
2013-05-03 00:11:00,62.9,42.9,30.23,ESE,107,1.0,3.0,48,0.00,,,0.00,0,WxPro DR1,2013-05-03 04:11:00,
2013-05-03 00:16:00,63.2,42.8,30.23,ESE,107,0.0,3.0,47,0.00,,,0.00,0,WxPro DR1,2013-05-03 04:16:00,
2013-05-03 00:21:00,63.4,43.3,30.23,ESE,107,0.0,2.0,48,0.00,,,0.00,0,WxPro DR1,2013-05-03 04:21:00,
2013-05-03 00:26:00,63.4,43.6,30.23,ESE,107,0.0,2.0,48,0.00,,,0.00,0,WxPro DR1,2013-05-03 04:26:00,
2013-05-03 00:31:00,63.2,43.6,30.23,ESE,107,0.0,2.0,49,0.00,,,0.00,0,WxPro DR1,2013-05-03 04:31:00,
2013-05-03 00:36:00,63.0,43.2,30.23,ESE,107,0.0,2.0,48,0.00,,,0.00,0,WxPro DR1,2013-05-03 04:36:00,
2013-05-03 00:41:00,62.7,42.7,30.23,ESE,106,0.0,1.0,48,0.00,,,0.00,0,WxPro DR1,2013-05-03 04:41:00,
2013-05-03 00:46:00,62.4,43.0,30.23,ESE,107,0.0,0.0,49,0.00,,,0.00,0,WxPro DR1,2013-05-03 04:46:00,
2013-05-03 00:51:00,62.0,43.1,30.23,ESE,107,0.0,0.0,50,0.00,,,0.00,0,WxPro DR1,2013-05-03 04:51:00,
2013-05-03 00:56:00,61.6,42.8,30.23,ESE,107,0.0,0.0,50,0.00,,,0.00,0,WxPro DR1,2013-05-03 04:56:00,
2013-05-03 01:01:00,61.2,42.8,30.23,ESE,107,0.0,0.0,51,0.00,,,0.00,0,WxPro DR1,2013-05-03 05:01:00,
2013-05-03 01:06:00,60.7,42.0,30.23,ESE,107,0.0,0.0,50,0.00,,,0.00,0,WxPro DR1,2013-05-03 05:06:00,
2013-05-03 01:11:00,60.3,42.1,30.23,ESE,107,0.0,0.0,51,0.00,,,0.00,0,WxPro DR1,2013-05-03 05:11:00,
2013-05-03 01:16:00,59.9,41.7,30.23,ESE,107,0.0,0.0,51,0.00,,,0.00,0,WxPro DR1,2013-05-03 05:16:00,
2013-05-03 01:21:00,59.6,41.7,30.23,ESE,107,0.0,1.0,52,0.00,,,0.00,0,WxPro DR1,2013-05-03 05:21:00,
2013-05-03 01:26:00,59.5,41.8,30.23,ESE,107,0.0,1.0,52,0.00,,,0.00,0,WxPro DR1,2013-05-03 05:26:00,
2013-05-03 01:31:00,59.7,41.6,30.23,ESE,107,0.0,1.0,51,0.00,,,0.00,0,WxPro DR1,2013-05-03 05:31:00,
2013-05-03 01:36:00,59.9,42.2,30.23,ESE,107,0.0,1.0,52,0.00,,,0.00,0,WxPro DR1,2013-05-03 05:36:00,
2013-05-03 01:41:00,59.7,43.0,30.23,ESE,106,0.0,1.0,54,0.00,,,0.00,0,WxPro DR1,2013-05-03 05:41:00,
2013-05-03 01:46:00,59.2,43.2,30.23,ESE,107,0.0,1.0,55,0.00,,,0.00,0,WxPro DR1,2013-05-03 05:46:00,
2013-05-03 01:51:00,58.8,43.1,30.23,ESE,107,0.0,0.0,56,0.00,,,0.00,0,WxPro DR1,2013-05-03 05:51:00,
2013-05-03 01:56:00,58.2,42.1,30.23,ESE,107,0.0,1.0,55,0.00,,,0.00,0,WxPro DR1,2013-05-03 05:56:00,
2013-05-03 02:01:00,58.0,42.8,30.23,ESE,107,0.0,1.0,57,0.00,,,0.00,0,WxPro DR1,2013-05-03 06:01:00,
2013-05-03 02:06:00,57.8,42.7,30.23,ESE,107,0.0,0.0,57,0.00,,,0.00,0,WxPro DR1,2013-05-03 06:06:00,
2013-05-03 02:11:00,57.7,42.1,30.23,ESE,107,0.0,1.0,56,0.00,,,0.00,0,WxPro DR1,2013-05-03 06:11:00,
2013-05-03 02:16:00,57.5,42.3,30.23,ESE,107,0.0,1.0,57,0.00,,,0.00,0,WxPro DR1,2013-05-03 06:16:00,
2013-05-03 02:21:00,57.3,42.7,30.23,ESE,107,0.0,0.0,58,0.00,,,0.00,0,WxPro DR1,2013-05-03 06:21:00,
2013-05-03 02:26:00,57.2,42.6,30.23,ESE,107,0.0,0.0,58,0.00,,,0.00,0,WxPro DR1,2013-05-03 06:26:00,
2013-05-03 02:31:00,57.0,42.9,30.23,ESE,107,0.0,0.0,59,0.00,,,0.00,0,WxPro DR1,2013-05-03 06:31:00,
2013-05-03 02:36:00,56.9,42.3,30.23,ESE,107,0.0,0.0,58,0.00,,,0.00,0,WxPro DR1,2013-05-03 06:36:00,
2013-05-03 02:41:00,56.8,43.0,30.23,ESE,107,0.0,0.0,60,0.00,,,0.00,0,WxPro DR1,2013-05-03 06:41:00,
2013-05-03 02:46:00,56.7,43.4,30.23,ESE,107,0.0,0.0,61,0.00,,,0.00,0,WxPro DR1,2013-05-03 06:46:00,
2013-05-03 02:51:00,56.4,43.2,30.23,ESE,107,0.0,0.0,61,0.00,,,0.00,0,WxPro DR1,2013-05-03 06:51:00,
2013-05-03 02:56:00,56.2,43.4,30.23,ESE,106,0.0,1.0,62,0.00,,,0.00,0,WxPro DR1,2013-05-03 06:56:00,
2013-05-03 03:01:00,56.2,43.3,30.23,ESE,107,0.0,1.0,62,0.00,,,0.00,0,WxPro DR1,2013-05-03 07:01:00,
2013-05-03 03:06:00,56.2,43.3,30.23,ESE,107,1.0,2.0,62,0.00,,,0.00,0,WxPro DR1,2013-05-03 07:06:00,
2013-05-03 03:11:00,56.7,42.9,30.23,ESE,108,0.0,2.0,60,0.00,,,0.00,0,WxPro DR1,2013-05-03 07:11:00,
2013-05-03 03:16:00,57.4,43.2,30.23,ESE,109,0.0,2.0,59,0.00,,,0.00,0,WxPro DR1,2013-05-03 07:16:00,
2013-05-03 03:21:00,57.7,43.2,30.23,ESE,109,0.0,2.0,58,0.00,,,0.00,0,WxPro DR1,2013-05-03 07:21:00,
2013-05-03 03:26:00,57.9,44.1,30.23,ESE,109,0.0,2.0,60,0.00,,,0.00,0,WxPro DR1,2013-05-03 07:26:00,
2013-05-03 03:31:00,57.6,44.3,30.23,ESE,109,0.0,1.0,61,0.00,,,0.00,0,WxPro DR1,2013-05-03 07:31:00,
2013-05-03 03:36:00,57.1,44.3,30.23,ESE,109,0.0,1.0,62,0.00,,,0.00,0,WxPro DR1,2013-05-03 07:36:00,
2013-05-03 03:41:00,56.2,44.2,30.23,ESE,109,0.0,1.0,64,0.00,,,0.00,0,WxPro DR1,2013-05-03 07:41:00,
2013-05-03 03:46:00,55.5,44.4,30.23,ESE,109,0.0,0.0,66,0.00,,,0.00,0,WxPro DR1,2013-05-03 07:46:00,
2013-05-03 03:51:00,55.0,44.0,30.23,ESE,109,0.0,0.0,66,0.00,,,0.00,0,WxPro DR1,2013-05-03 07:51:00,
2013-05-03 03:56:00,54.6,43.9,30.23,ESE,109,0.0,1.0,67,0.00,,,0.00,0,WxPro DR1,2013-05-03 07:56:00,
2013-05-03 04:01:00,54.3,44.2,30.24,ESE,109,0.0,1.0,68,0.00,,,0.00,0,WxPro DR1,2013-05-03 08:01:00,
2013-05-03 04:06:00,54.0,44.4,30.24,ESE,108,0.0,1.0,70,0.00,,,0.00,0,WxPro DR1,2013-05-03 08:06:00,
2013-05-03 04:11:00,53.6,44.4,30.24,ESE,109,1.0,1.0,71,0.00,,,0.00,0,WxPro DR1,2013-05-03 08:11:00,
2013-05-03 04:16:00,53.5,44.3,30.24,ESE,109,0.0,2.0,71,0.00,,,0.00,0,WxPro DR1,2013-05-03 08:16:00,
2013-05-03 04:21:00,53.5,44.3,30.23,ESE,109,0.0,2.0,71,0.00,,,0.00,0,WxPro DR1,2013-05-03 08:21:00,
2013-05-03 04:26:00,53.4,44.2,30.24,ESE,109,0.0,1.0,71,0.00,,,0.00,0,WxPro DR1,2013-05-03 08:26:00,
2013-05-03 04:31:00,53.3,44.5,30.23,ESE,109,0.0,1.0,72,0.00,,,0.00,0,WxPro DR1,2013-05-03 08:31:00,
2013-05-03 04:36:00,53.2,44.4,30.23,ESE,109,0.0,1.0,72,0.00,,,0.00,0,WxPro DR1,2013-05-03 08:36:00,
2013-05-03 04:41:00,53.0,44.6,30.23,ESE,108,0.0,0.0,73,0.00,,,0.00,0,WxPro DR1,2013-05-03 08:41:00,
2013-05-03 04:46:00,53.0,44.2,30.23,ESE,109,0.0,1.0,72,0.00,,,0.00,0,WxPro DR1,2013-05-03 08:46:00,
2013-05-03 04:51:00,53.1,44.3,30.24,ESE,109,0.0,1.0,72,0.00,,,0.00,0,WxPro DR1,2013-05-03 08:51:00,
2013-05-03 04:56:00,53.2,44.4,30.23,ESE,109,0.0,1.0,72,0.00,,,0.00,0,WxPro DR1,2013-05-03 08:56:00,
2013-05-03 05:01:00,53.2,44.8,30.24,ESE,109,0.0,1.0,73,0.00,,,0.00,0,WxPro DR1,2013-05-03 09:01:00,
2013-05-03 05:06:00,53.2,44.7,30.24,ESE,107,0.0,1.0,73,0.00,,,0.00,0,WxPro DR1,2013-05-03 09:06:00,
2013-05-03 05:11:00,53.1,45.0,30.24,ESE,109,0.0,1.0,74,0.00,,,0.00,0,WxPro DR1,2013-05-03 09:11:00,
2013-05-03 05:16:00,52.9,44.9,30.24,ESE,109,0.0,0.0,74,0.00,,,0.00,0,WxPro DR1,2013-05-03 09:16:00,
2013-05-03 05:21:00,52.8,44.4,30.25,ESE,109,0.0,0.0,73,0.00,,,0.00,0,WxPro DR1,2013-05-03 09:21:00,
2013-05-03 05:26:00,52.8,44.1,30.25,ESE,107,0.0,1.0,72,0.00,,,0.00,0,WxPro DR1,2013-05-03 09:26:00,
2013-05-03 05:31:00,53.5,44.3,30.24,ESE,109,0.0,1.0,71,0.00,,,0.00,0,WxPro DR1,2013-05-03 09:31:00,
2013-05-03 05:36:00,53.7,44.5,30.25,ESE,109,0.0,1.0,71,0.00,,,0.00,0,WxPro DR1,2013-05-03 09:36:00,
2013-05-03 05:41:00,53.3,44.7,30.25,ESE,109,0.0,2.0,72,0.00,,,0.00,0,WxPro DR1,2013-05-03 09:41:00,
2013-05-03 05:46:00,53.0,44.6,30.25,ESE,109,0.0,2.0,73,0.00,,,0.00,0,WxPro DR1,2013-05-03 09:46:00,
2013-05-03 05:51:00,52.8,44.3,30.24,ESE,109,1.0,2.0,73,0.00,,,0.00,0,WxPro DR1,2013-05-03 09:51:00,
2013-05-03 05:56:00,53.6,43.7,30.24,ESE,109,0.0,2.0,69,0.00,,,0.00,0,WxPro DR1,2013-05-03 09:56:00,
2013-05-03 06:01:00,55.2,43.7,30.24,ESE,114,0.0,2.0,65,0.00,,,0.00,0,WxPro DR1,2013-05-03 10:01:00,
2013-05-03 06:06:00,56.5,43.7,30.25,SE,126,0.0,4.0,62,0.00,,,0.00,5,WxPro DR1,2013-05-03 10:06:00,
2013-05-03 06:11:00,57.2,43.8,30.25,SE,128,0.0,4.0,61,0.00,,,0.00,9,WxPro DR1,2013-05-03 10:11:00,
2013-05-03 06:16:00,57.6,44.0,30.25,SE,129,0.0,3.0,61,0.00,,,0.00,11,WxPro DR1,2013-05-03 10:16:00,
2013-05-03 06:21:00,57.5,45.0,30.25,SE,129,1.0,2.0,63,0.00,,,0.00,12,WxPro DR1,2013-05-03 10:21:00,
2013-05-03 06:26:00,57.1,43.8,30.25,SE,129,0.0,2.0,61,0.00,,,0.00,14,WxPro DR1,2013-05-03 10:26:00,
2013-05-03 06:31:00,57.2,43.9,30.25,SE,128,0.0,2.0,61,0.00,,,0.00,18,WxPro DR1,2013-05-03 10:31:00,
2013-05-03 06:36:00,57.2,44.3,30.25,SE,129,0.0,2.0,62,0.00,,,0.00,21,WxPro DR1,2013-05-03 10:36:00,
2013-05-03 06:41:00,57.0,44.4,30.25,SE,128,0.0,2.0,63,0.00,,,0.00,25,WxPro DR1,2013-05-03 10:41:00,
2013-05-03 06:46:00,56.9,44.4,30.25,SE,129,1.0,2.0,63,0.00,,,0.00,28,WxPro DR1,2013-05-03 10:46:00,
2013-05-03 06:51:00,56.9,44.6,30.25,SE,128,0.0,1.0,63,0.00,,,0.00,32,WxPro DR1,2013-05-03 10:51:00,
2013-05-03 06:56:00,56.9,45.3,30.25,SE,130,1.0,1.0,65,0.00,,,0.00,33,WxPro DR1,2013-05-03 10:56:00,
2013-05-03 07:01:00,57.0,45.3,30.26,SE,129,0.0,1.0,65,0.00,,,0.00,37,WxPro DR1,2013-05-03 11:01:00,
2013-05-03 07:06:00,57.2,45.6,30.26,SE,129,0.0,1.0,65,0.00,,,0.00,42,WxPro DR1,2013-05-03 11:06:00,
2013-05-03 07:11:00,57.7,45.6,30.26,SE,128,0.0,1.0,64,0.00,,,0.00,44,WxPro DR1,2013-05-03 11:11:00,
2013-05-03 07:16:00,58.5,45.5,30.26,SE,129,0.0,3.0,62,0.00,,,0.00,47,WxPro DR1,2013-05-03 11:16:00,
2013-05-03 07:21:00,59.1,46.3,30.26,SE,128,0.0,3.0,63,0.00,,,0.00,109,WxPro DR1,2013-05-03 11:21:00,
2013-05-03 07:26:00,59.7,45.8,30.27,SE,129,0.0,3.0,60,0.00,,,0.00,183,WxPro DR1,2013-05-03 11:26:00,
2013-05-03 07:31:00,60.5,46.1,30.27,SSE,154,1.0,4.0,59,0.00,,,0.00,202,WxPro DR1,2013-05-03 11:31:00,
2013-05-03 07:36:00,61.1,45.9,30.27,SSE,155,0.0,4.0,57,0.00,,,0.00,220,WxPro DR1,2013-05-03 11:36:00,
2013-05-03 07:41:00,61.7,45.9,30.26,SSE,155,0.0,3.0,56,0.00,,,0.00,237,WxPro DR1,2013-05-03 11:41:00,
2013-05-03 07:46:00,62.4,46.6,30.26,SSE,155,0.0,3.0,56,0.00,,,0.00,253,WxPro DR1,2013-05-03 11:46:00,
2013-05-03 07:51:00,63.2,46.7,30.26,SSE,155,1.0,3.0,55,0.00,,,0.00,272,WxPro DR1,2013-05-03 11:51:00,
2013-05-03 07:56:00,64.0,46.1,30.26,ESE,123,0.0,6.0,52,0.00,,,0.00,285,WxPro DR1,2013-05-03 11:56:00,
2013-05-03 08:01:00,64.9,46.8,30.27,ESE,122,0.0,6.0,52,0.00,,,0.00,306,WxPro DR1,2013-05-03 12:01:00,
2013-05-03 08:06:00,65.6,47.5,30.27,SE,139,2.0,3.0,52,0.00,,,0.00,318,WxPro DR1,2013-05-03 12:06:00,
2013-05-03 08:11:00,66.2,47.4,30.27,SE,142,2.0,3.0,51,0.00,,,0.00,338,WxPro DR1,2013-05-03 12:11:00,
2013-05-03 08:16:00,66.6,47.3,30.27,SE,141,0.0,3.0,50,0.00,,,0.00,350,WxPro DR1,2013-05-03 12:16:00,
2013-05-03 08:21:00,66.9,48.2,30.27,SE,141,0.0,3.0,51,0.00,,,0.00,367,WxPro DR1,2013-05-03 12:21:00,
2013-05-03 08:26:00,67.5,47.9,30.27,SE,142,2.0,2.0,49,0.00,,,0.00,385,WxPro DR1,2013-05-03 12:26:00,
2013-05-03 08:31:00,68.0,47.9,30.27,SSE,149,4.0,4.0,48,0.00,,,0.00,403,WxPro DR1,2013-05-03 12:31:00,
2013-05-03 08:36:00,68.2,48.0,30.27,SSE,148,0.0,4.0,48,0.00,,,0.00,420,WxPro DR1,2013-05-03 12:36:00,
2013-05-03 08:41:00,68.0,47.3,30.27,SSE,157,1.0,5.0,48,0.00,,,0.00,438,WxPro DR1,2013-05-03 12:41:00,
2013-05-03 08:46:00,68.0,48.0,30.27,South,185,0.0,6.0,49,0.00,,,0.00,455,WxPro DR1,2013-05-03 12:46:00,
2013-05-03 08:51:00,68.4,46.8,30.27,South,183,3.0,6.0,46,0.00,,,0.00,471,WxPro DR1,2013-05-03 12:51:00,
2013-05-03 08:56:00,68.5,47.6,30.27,South,178,4.0,7.0,47,0.00,,,0.00,489,WxPro DR1,2013-05-03 12:56:00,
2013-05-03 09:01:00,68.8,47.2,30.27,South,184,5.0,7.0,46,0.00,,,0.00,504,WxPro DR1,2013-05-03 13:01:00,
2013-05-03 09:06:00,68.8,47.5,30.27,South,178,3.0,6.0,47,0.00,,,0.00,520,WxPro DR1,2013-05-03 13:06:00,
2013-05-03 09:11:00,69.4,47.5,30.27,South,190,3.0,7.0,46,0.00,,,0.00,538,WxPro DR1,2013-05-03 13:11:00,
2013-05-03 09:16:00,70.1,47.0,30.27,South,187,5.0,7.0,44,0.00,,,0.00,552,WxPro DR1,2013-05-03 13:16:00,
2013-05-03 09:21:00,70.1,47.2,30.27,SSE,158,2.0,5.0,44,0.00,,,0.00,568,WxPro DR1,2013-05-03 13:21:00,
2013-05-03 09:26:00,70.9,47.5,30.26,SSW,192,2.0,5.0,43,0.00,,,0.00,585,WxPro DR1,2013-05-03 13:26:00,
2013-05-03 09:31:00,71.6,48.6,30.26,South,176,2.0,9.0,44,0.00,,,0.00,601,WxPro DR1,2013-05-03 13:31:00,
2013-05-03 09:36:00,72.2,47.8,30.26,SE,141,3.0,9.0,42,0.00,,,0.00,619,WxPro DR1,2013-05-03 13:36:00,
2013-05-03 09:41:00,72.8,48.4,30.26,SE,124,2.0,5.0,42,0.00,,,0.00,631,WxPro DR1,2013-05-03 13:41:00,
2013-05-03 09:46:00,73.0,47.9,30.26,South,187,1.0,5.0,41,0.00,,,0.00,643,WxPro DR1,2013-05-03 13:46:00,
2013-05-03 09:51:00,72.7,47.8,30.26,SSE,155,1.0,7.0,41,0.00,,,0.00,640,WxPro DR1,2013-05-03 13:51:00,
2013-05-03 09:56:00,72.6,46.8,30.26,SSW,198,5.0,7.0,40,0.00,,,0.00,659,WxPro DR1,2013-05-03 13:56:00,
2013-05-03 10:01:00,72.1,46.9,30.26,South,187,0.0,9.0,41,0.00,,,0.00,649,WxPro DR1,2013-05-03 14:01:00,
2013-05-03 10:06:00,72.4,46.9,30.26,SSE,160,1.0,9.0,40,0.00,,,0.00,670,WxPro DR1,2013-05-03 14:06:00,
2013-05-03 10:11:00,73.2,48.1,30.26,SSE,164,1.0,7.0,41,0.00,,,0.00,691,WxPro DR1,2013-05-03 14:11:00,
2013-05-03 10:16:00,73.9,47.7,30.26,SSE,165,0.0,6.0,39,0.00,,,0.00,696,WxPro DR1,2013-05-03 14:16:00,
2013-05-03 10:21:00,74.6,47.8,30.26,SSE,161,3.0,7.0,39,0.00,,,0.00,710,WxPro DR1,2013-05-03 14:21:00,
2013-05-03 10:26:00,74.2,46.5,30.26,SE,132,2.0,7.0,37,0.00,,,0.00,737,WxPro DR1,2013-05-03 14:26:00,
2013-05-03 10:31:00,73.9,47.4,30.26,South,179,1.0,6.0,39,0.00,,,0.00,758,WxPro DR1,2013-05-03 14:31:00,
2013-05-03 10:36:00,74.7,47.4,30.26,South,177,3.0,6.0,38,0.00,,,0.00,745,WxPro DR1,2013-05-03 14:36:00,
2013-05-03 10:41:00,74.8,47.0,30.26,South,184,0.0,5.0,37,0.00,,,0.00,784,WxPro DR1,2013-05-03 14:41:00,
2013-05-03 10:46:00,74.8,47.1,30.26,SE,144,3.0,5.0,38,0.00,,,0.00,791,WxPro DR1,2013-05-03 14:46:00,
2013-05-03 10:51:00,75.2,48.2,30.25,SSE,159,3.0,4.0,39,0.00,,,0.00,796,WxPro DR1,2013-05-03 14:51:00,
2013-05-03 10:56:00,75.8,48.1,30.25,SSE,167,0.0,6.0,38,0.00,,,0.00,758,WxPro DR1,2013-05-03 14:56:00,
2013-05-03 11:01:00,75.8,47.7,30.26,South,169,0.0,6.0,37,0.00,,,0.00,812,WxPro DR1,2013-05-03 15:01:00,
2013-05-03 11:06:00,76.3,46.6,30.26,South,182,1.0,7.0,35,0.00,,,0.00,796,WxPro DR1,2013-05-03 15:06:00,
2013-05-03 11:11:00,76.3,47.6,30.26,SE,144,1.0,7.0,36,0.00,,,0.00,824,WxPro DR1,2013-05-03 15:11:00,
2013-05-03 11:16:00,76.6,48.1,30.25,SE,145,0.0,5.0,37,0.00,,,0.00,810,WxPro DR1,2013-05-03 15:16:00,
2013-05-03 11:21:00,77.4,48.0,30.25,ESE,123,4.0,4.0,36,0.00,,,0.00,914,WxPro DR1,2013-05-03 15:21:00,
2013-05-03 11:26:00,77.1,48.6,30.25,ESE,111,4.0,6.0,37,0.00,,,0.00,838,WxPro DR1,2013-05-03 15:26:00,
2013-05-03 11:31:00,77.3,47.7,30.25,ESE,115,0.0,6.0,35,0.00,,,0.00,726,WxPro DR1,2013-05-03 15:31:00,
2013-05-03 11:36:00,78.1,48.9,30.25,South,184,0.0,5.0,36,0.00,,,0.00,749,WxPro DR1,2013-05-03 15:36:00,
2013-05-03 11:41:00,78.5,49.3,30.25,South,178,1.0,4.0,36,0.00,,,0.00,759,WxPro DR1,2013-05-03 15:41:00,
2013-05-03 11:46:00,78.8,48.5,30.25,ESE,110,3.0,5.0,35,0.00,,,0.00,719,WxPro DR1,2013-05-03 15:46:00,
2013-05-03 11:51:00,78.2,51.1,30.25,South,177,0.0,6.0,39,0.00,,,0.00,860,WxPro DR1,2013-05-03 15:51:00,
2013-05-03 11:56:00,77.9,49.5,30.25,South,174,0.0,6.0,37,0.00,,,0.00,868,WxPro DR1,2013-05-03 15:56:00,
2013-05-03 12:01:00,77.8,48.6,30.25,SSE,148,0.0,6.0,36,0.00,,,0.00,784,WxPro DR1,2013-05-03 16:01:00,
2013-05-03 12:06:00,77.8,49.4,30.25,SSW,192,3.0,5.0,37,0.00,,,0.00,788,WxPro DR1,2013-05-03 16:06:00,
2013-05-03 12:11:00,77.2,48.8,30.24,South,180,4.0,9.0,37,0.00,,,0.00,821,WxPro DR1,2013-05-03 16:11:00,
2013-05-03 12:16:00,76.5,47.8,30.25,South,176,0.0,9.0,36,0.00,,,0.00,856,WxPro DR1,2013-05-03 16:16:00,
2013-05-03 12:21:00,77.1,49.2,30.24,South,182,0.0,5.0,38,0.00,,,0.00,963,WxPro DR1,2013-05-03 16:21:00,
2013-05-03 12:26:00,77.9,48.5,30.24,East,86,2.0,3.0,36,0.00,,,0.00,939,WxPro DR1,2013-05-03 16:26:00,
2013-05-03 12:31:00,78.1,50.1,30.24,SW,217,4.0,5.0,38,0.00,,,0.00,902,WxPro DR1,2013-05-03 16:31:00,
2013-05-03 12:36:00,77.5,48.2,30.24,SSW,196,3.0,5.0,36,0.00,,,0.00,956,WxPro DR1,2013-05-03 16:36:00,
2013-05-03 12:41:00,76.7,48.8,30.23,West,280,1.0,5.0,38,0.00,,,0.00,930,WxPro DR1,2013-05-03 16:41:00,
2013-05-03 12:46:00,77.0,49.5,30.23,SE,142,2.0,5.0,38,0.00,,,0.00,810,WxPro DR1,2013-05-03 16:46:00,
2013-05-03 12:51:00,78.0,49.1,30.23,SE,132,1.0,6.0,36,0.00,,,0.00,882,WxPro DR1,2013-05-03 16:51:00,
2013-05-03 12:56:00,78.5,48.5,30.23,SE,130,2.0,6.0,35,0.00,,,0.00,881,WxPro DR1,2013-05-03 16:56:00,
2013-05-03 13:01:00,78.1,51.4,30.23,SE,136,1.0,4.0,39,0.00,,,0.00,872,WxPro DR1,2013-05-03 17:01:00,
2013-05-03 13:06:00,77.8,49.1,30.23,SE,136,1.0,4.0,36,0.00,,,0.00,851,WxPro DR1,2013-05-03 17:06:00,
2013-05-03 13:11:00,77.6,49.9,30.23,ESE,119,3.0,5.0,38,0.00,,,0.00,826,WxPro DR1,2013-05-03 17:11:00,
2013-05-03 13:16:00,78.6,51.7,30.23,ESE,115,2.0,6.0,39,0.00,,,0.00,772,WxPro DR1,2013-05-03 17:16:00,
2013-05-03 13:21:00,79.3,49.4,30.23,ESE,102,5.0,7.0,35,0.00,,,0.00,821,WxPro DR1,2013-05-03 17:21:00,
2013-05-03 13:26:00,78.9,50.2,30.23,NE,46,1.0,7.0,37,0.00,,,0.00,889,WxPro DR1,2013-05-03 17:26:00,
2013-05-03 13:31:00,79.2,51.6,30.22,NE,42,1.0,7.0,38,0.00,,,0.00,914,WxPro DR1,2013-05-03 17:31:00,
2013-05-03 13:36:00,80.2,51.7,30.22,ESE,109,4.0,7.0,37,0.00,,,0.00,930,WxPro DR1,2013-05-03 17:36:00,
2013-05-03 13:41:00,80.7,50.5,30.22,ESE,109,3.0,10.0,35,0.00,,,0.00,933,WxPro DR1,2013-05-03 17:41:00,
2013-05-03 13:46:00,80.7,51.0,30.22,East,94,2.0,10.0,36,0.00,,,0.00,928,WxPro DR1,2013-05-03 17:46:00,
2013-05-03 13:51:00,80.6,51.1,30.22,NE,53,3.0,12.0,36,0.00,,,0.00,895,WxPro DR1,2013-05-03 17:51:00,
2013-05-03 13:56:00,80.4,51.0,30.22,ESE,102,3.0,12.0,36,0.00,,,0.00,889,WxPro DR1,2013-05-03 17:56:00,
2013-05-03 14:01:00,80.2,50.8,30.22,ESE,103,2.0,10.0,36,0.00,,,0.00,884,WxPro DR1,2013-05-03 18:01:00,
2013-05-03 14:06:00,79.8,51.3,30.22,ESE,117,1.0,7.0,37,0.00,,,0.00,865,WxPro DR1,2013-05-03 18:06:00,
2013-05-03 14:11:00,79.4,50.1,30.22,NE,53,3.0,10.0,36,0.00,,,0.00,861,WxPro DR1,2013-05-03 18:11:00,
2013-05-03 14:16:00,79.1,50.9,30.22,ESE,119,0.0,10.0,37,0.00,,,0.00,858,WxPro DR1,2013-05-03 18:16:00,
2013-05-03 14:21:00,79.3,50.3,30.21,ESE,110,3.0,8.0,36,0.00,,,0.00,879,WxPro DR1,2013-05-03 18:21:00,
2013-05-03 14:26:00,79.7,50.5,30.21,ESE,117,1.0,9.0,36,0.00,,,0.00,918,WxPro DR1,2013-05-03 18:26:00,
2013-05-03 14:31:00,80.0,51.8,30.21,ESE,107,5.0,11.0,38,0.00,,,0.00,881,WxPro DR1,2013-05-03 18:31:00,
2013-05-03 14:36:00,79.9,51.4,30.21,East,100,4.0,11.0,37,0.00,,,0.00,861,WxPro DR1,2013-05-03 18:36:00,
2013-05-03 14:41:00,80.0,51.4,30.21,East,94,2.0,9.0,37,0.00,,,0.00,858,WxPro DR1,2013-05-03 18:41:00,
2013-05-03 14:46:00,80.1,51.0,30.21,SE,124,9.0,11.0,36,0.00,,,0.00,860,WxPro DR1,2013-05-03 18:46:00,
2013-05-03 14:51:00,79.8,51.2,30.21,SE,132,1.0,11.0,37,0.00,,,0.00,809,WxPro DR1,2013-05-03 18:51:00,
2013-05-03 14:56:00,80.0,50.2,30.20,East,91,1.0,9.0,35,0.00,,,0.00,830,WxPro DR1,2013-05-03 18:56:00,
2013-05-03 15:01:00,80.6,50.5,30.20,ESE,119,1.0,7.0,35,0.00,,,0.00,835,WxPro DR1,2013-05-03 19:01:00,
2013-05-03 15:06:00,80.8,50.6,30.20,ESE,111,5.0,7.0,35,0.00,,,0.00,847,WxPro DR1,2013-05-03 19:06:00,
2013-05-03 15:11:00,81.0,51.2,30.20,ESE,122,6.0,10.0,36,0.00,,,0.00,837,WxPro DR1,2013-05-03 19:11:00,
2013-05-03 15:16:00,80.5,50.0,30.20,ESE,117,6.0,10.0,35,0.00,,,0.00,853,WxPro DR1,2013-05-03 19:16:00,
2013-05-03 15:21:00,80.0,52.8,30.20,ESE,109,5.0,10.0,39,0.00,,,0.00,838,WxPro DR1,2013-05-03 19:21:00,
2013-05-03 15:26:00,80.0,51.3,30.20,SE,128,5.0,11.0,37,0.00,,,0.00,816,WxPro DR1,2013-05-03 19:26:00,
2013-05-03 15:31:00,79.6,51.0,30.19,ESE,103,8.0,12.0,37,0.00,,,0.00,754,WxPro DR1,2013-05-03 19:31:00,
2013-05-03 15:36:00,79.3,50.8,30.19,SE,125,10.0,12.0,37,0.00,,,0.00,722,WxPro DR1,2013-05-03 19:36:00,
2013-05-03 15:41:00,79.3,50.7,30.19,East,90,3.0,10.0,37,0.00,,,0.00,714,WxPro DR1,2013-05-03 19:41:00,
2013-05-03 15:46:00,79.3,50.0,30.19,East,92,3.0,10.0,36,0.00,,,0.00,754,WxPro DR1,2013-05-03 19:46:00,
2013-05-03 15:51:00,79.5,51.2,30.19,ESE,113,9.0,12.0,37,0.00,,,0.00,768,WxPro DR1,2013-05-03 19:51:00,
2013-05-03 15:56:00,79.3,51.1,30.19,ESE,115,6.0,12.0,38,0.00,,,0.00,687,WxPro DR1,2013-05-03 19:56:00,
2013-05-03 16:01:00,79.4,50.5,30.19,ESE,119,2.0,12.0,37,0.00,,,0.00,691,WxPro DR1,2013-05-03 20:01:00,
2013-05-03 16:06:00,79.6,50.5,30.18,NE,45,2.0,12.0,36,0.00,,,0.00,650,WxPro DR1,2013-05-03 20:06:00,
2013-05-03 16:11:00,79.5,50.8,30.18,ESE,108,6.0,12.0,37,0.00,,,0.00,628,WxPro DR1,2013-05-03 20:11:00,
2013-05-03 16:16:00,79.5,50.2,30.18,ESE,109,3.0,10.0,36,0.00,,,0.00,673,WxPro DR1,2013-05-03 20:16:00,
2013-05-03 16:21:00,78.7,49.5,30.18,SSE,154,8.0,12.0,36,0.00,,,0.00,705,WxPro DR1,2013-05-03 20:21:00,
2013-05-03 16:26:00,78.3,50.0,30.18,ESE,115,7.0,12.0,37,0.00,,,0.00,663,WxPro DR1,2013-05-03 20:26:00,
2013-05-03 16:31:00,78.3,50.2,30.18,ESE,113,0.0,11.0,37,0.00,,,0.00,603,WxPro DR1,2013-05-03 20:31:00,
2013-05-03 16:36:00,78.5,50.4,30.18,SE,124,3.0,11.0,37,0.00,,,0.00,577,WxPro DR1,2013-05-03 20:36:00,
2013-05-03 16:41:00,78.1,51.1,30.18,SE,129,0.0,11.0,39,0.00,,,0.00,575,WxPro DR1,2013-05-03 20:41:00,
2013-05-03 16:46:00,77.9,49.7,30.18,ESE,122,7.0,11.0,37,0.00,,,0.00,594,WxPro DR1,2013-05-03 20:46:00,
2013-05-03 16:51:00,77.6,49.3,30.18,ESE,122,3.0,12.0,37,0.00,,,0.00,589,WxPro DR1,2013-05-03 20:51:00,
2013-05-03 16:56:00,77.7,49.7,30.18,East,90,3.0,12.0,38,0.00,,,0.00,592,WxPro DR1,2013-05-03 20:56:00,
2013-05-03 17:01:00,78.3,50.8,30.18,ESE,103,5.0,12.0,38,0.00,,,0.00,536,WxPro DR1,2013-05-03 21:01:00,
2013-05-03 17:06:00,78.4,50.3,30.18,ESE,112,8.0,10.0,37,0.00,,,0.00,503,WxPro DR1,2013-05-03 21:06:00,
2013-05-03 17:11:00,78.1,50.4,30.18,ESE,115,3.0,11.0,38,0.00,,,0.00,476,WxPro DR1,2013-05-03 21:11:00,
2013-05-03 17:16:00,77.8,50.1,30.18,ENE,67,4.0,11.0,38,0.00,,,0.00,490,WxPro DR1,2013-05-03 21:16:00,
2013-05-03 17:21:00,77.7,50.1,30.18,NE,42,7.0,10.0,38,0.00,,,0.00,499,WxPro DR1,2013-05-03 21:21:00,
2013-05-03 17:26:00,77.7,51.3,30.18,ESE,105,4.0,10.0,40,0.00,,,0.00,473,WxPro DR1,2013-05-03 21:26:00,
2013-05-03 17:31:00,77.5,50.4,30.18,ESE,118,1.0,10.0,39,0.00,,,0.00,468,WxPro DR1,2013-05-03 21:31:00,
2013-05-03 17:36:00,77.6,50.0,30.18,SE,135,6.0,10.0,38,0.00,,,0.00,455,WxPro DR1,2013-05-03 21:36:00,
2013-05-03 17:41:00,77.5,49.5,30.18,ENE,65,3.0,10.0,37,0.00,,,0.00,434,WxPro DR1,2013-05-03 21:41:00,
2013-05-03 17:46:00,77.3,48.9,30.18,ESE,115,4.0,10.0,37,0.00,,,0.00,401,WxPro DR1,2013-05-03 21:46:00,
2013-05-03 17:51:00,77.0,49.8,30.18,SE,133,5.0,10.0,38,0.00,,,0.00,394,WxPro DR1,2013-05-03 21:51:00,
2013-05-03 17:56:00,76.7,48.6,30.18,East,96,3.0,11.0,37,0.00,,,0.00,387,WxPro DR1,2013-05-03 21:56:00,
2013-05-03 18:01:00,76.5,50.4,30.18,SE,136,5.0,11.0,40,0.00,,,0.00,371,WxPro DR1,2013-05-03 22:01:00,
2013-05-03 18:06:00,76.5,48.5,30.17,East,84,4.0,13.0,37,0.00,,,0.00,352,WxPro DR1,2013-05-03 22:06:00,
2013-05-03 18:11:00,76.5,49.0,30.17,ESE,117,7.0,13.0,38,0.00,,,0.00,304,WxPro DR1,2013-05-03 22:11:00,
2013-05-03 18:16:00,76.4,48.9,30.18,East,86,6.0,14.0,38,0.00,,,0.00,281,WxPro DR1,2013-05-03 22:16:00,
2013-05-03 18:21:00,76.2,49.7,30.18,ENE,76,6.0,14.0,39,0.00,,,0.00,301,WxPro DR1,2013-05-03 22:21:00,
2013-05-03 18:26:00,76.2,48.8,30.18,ESE,109,5.0,12.0,38,0.00,,,0.00,260,WxPro DR1,2013-05-03 22:26:00,
2013-05-03 18:31:00,75.9,48.5,30.18,ESE,111,2.0,12.0,38,0.00,,,0.00,230,WxPro DR1,2013-05-03 22:31:00,
2013-05-03 18:36:00,75.4,48.7,30.18,ESE,105,6.0,10.0,39,0.00,,,0.00,218,WxPro DR1,2013-05-03 22:36:00,
2013-05-03 18:41:00,75.1,48.5,30.18,East,94,5.0,10.0,39,0.00,,,0.00,223,WxPro DR1,2013-05-03 22:41:00,
2013-05-03 18:46:00,75.1,49.1,30.18,ESE,108,1.0,9.0,40,0.00,,,0.00,204,WxPro DR1,2013-05-03 22:46:00,
2013-05-03 18:51:00,75.1,48.4,30.17,ESE,103,4.0,11.0,39,0.00,,,0.00,190,WxPro DR1,2013-05-03 22:51:00,
2013-05-03 18:56:00,75.0,48.3,30.17,ESE,105,3.0,11.0,39,0.00,,,0.00,174,WxPro DR1,2013-05-03 22:56:00,
2013-05-03 19:01:00,74.8,48.3,30.17,East,98,5.0,9.0,39,0.00,,,0.00,155,WxPro DR1,2013-05-03 23:01:00,
2013-05-03 19:06:00,74.6,48.6,30.17,East,83,2.0,11.0,40,0.00,,,0.00,135,WxPro DR1,2013-05-03 23:06:00,
2013-05-03 19:11:00,74.4,48.5,30.17,East,92,5.0,11.0,40,0.00,,,0.00,118,WxPro DR1,2013-05-03 23:11:00,
2013-05-03 19:16:00,74.3,48.8,30.17,East,90,5.0,9.0,41,0.00,,,0.00,102,WxPro DR1,2013-05-03 23:16:00,
2013-05-03 19:21:00,74.1,48.2,30.17,ESE,113,0.0,13.0,40,0.00,,,0.00,83,WxPro DR1,2013-05-03 23:21:00,
2013-05-03 19:26:00,73.8,48.7,30.17,East,83,2.0,13.0,41,0.00,,,0.00,67,WxPro DR1,2013-05-03 23:26:00,
2013-05-03 19:31:00,73.5,48.3,30.17,ENE,78,5.0,10.0,41,0.00,,,0.00,56,WxPro DR1,2013-05-03 23:31:00,
2013-05-03 19:36:00,73.3,48.1,30.17,ESE,102,3.0,10.0,41,0.00,,,0.00,35,WxPro DR1,2013-05-03 23:36:00,
2013-05-03 19:41:00,73.0,48.6,30.17,ESE,105,6.0,10.0,42,0.00,,,0.00,25,WxPro DR1,2013-05-03 23:41:00,
2013-05-03 19:46:00,72.7,48.9,30.17,ESE,122,5.0,7.0,43,0.00,,,0.00,19,WxPro DR1,2013-05-03 23:46:00,
2013-05-03 19:51:00,72.4,48.0,30.17,ESE,105,3.0,7.0,42,0.00,,,0.00,14,WxPro DR1,2013-05-03 23:51:00,
2013-05-03 19:56:00,72.1,48.3,30.17,ESE,112,0.0,6.0,43,0.00,,,0.00,12,WxPro DR1,2013-05-03 23:56:00,
2013-05-03 20:01:00,71.7,48.0,30.17,East,101,1.0,5.0,43,0.00,,,0.00,11,WxPro DR1,2013-05-04 00:01:00,
2013-05-03 20:06:00,71.4,48.3,30.17,East,97,1.0,4.0,44,0.00,,,0.00,9,WxPro DR1,2013-05-04 00:06:00,
2013-05-03 20:11:00,71.2,48.2,30.18,ESE,104,1.0,5.0,44,0.00,,,0.00,5,WxPro DR1,2013-05-04 00:11:00,
2013-05-03 20:16:00,70.9,47.9,30.18,ESE,110,1.0,5.0,44,0.00,,,0.00,0,WxPro DR1,2013-05-04 00:16:00,
2013-05-03 20:21:00,70.6,48.1,30.18,East,84,1.0,5.0,45,0.00,,,0.00,0,WxPro DR1,2013-05-04 00:21:00,
2013-05-03 20:26:00,70.4,48.0,30.18,ESE,115,0.0,5.0,45,0.00,,,0.00,0,WxPro DR1,2013-05-04 00:26:00,
2013-05-03 20:31:00,70.1,48.0,30.18,ESE,111,0.0,5.0,45,0.00,,,0.00,0,WxPro DR1,2013-05-04 00:31:00,
2013-05-03 20:36:00,69.8,48.0,30.18,East,95,1.0,4.0,46,0.00,,,0.00,0,WxPro DR1,2013-05-04 00:36:00,
2013-05-03 20:41:00,69.5,47.8,30.18,East,92,1.0,4.0,46,0.00,,,0.00,0,WxPro DR1,2013-05-04 00:41:00,
2013-05-03 20:46:00,69.3,47.6,30.18,East,94,0.0,4.0,46,0.00,,,0.00,0,WxPro DR1,2013-05-04 00:46:00,
2013-05-03 20:51:00,69.1,47.4,30.19,East,94,1.0,2.0,46,0.00,,,0.00,0,WxPro DR1,2013-05-04 00:51:00,
2013-05-03 20:56:00,68.9,47.8,30.19,East,96,0.0,3.0,47,0.00,,,0.00,0,WxPro DR1,2013-05-04 00:56:00,
2013-05-03 21:01:00,68.7,48.2,30.18,East,91,0.0,3.0,48,0.00,,,0.00,0,WxPro DR1,2013-05-04 01:01:00,
2013-05-03 21:06:00,68.4,48.3,30.19,East,92,0.0,3.0,49,0.00,,,0.00,0,WxPro DR1,2013-05-04 01:06:00,
2013-05-03 21:11:00,68.1,48.2,30.19,East,92,0.0,3.0,49,0.00,,,0.00,0,WxPro DR1,2013-05-04 01:11:00,
2013-05-03 21:16:00,67.8,48.0,30.19,East,92,0.0,3.0,49,0.00,,,0.00,0,WxPro DR1,2013-05-04 01:16:00,
2013-05-03 21:21:00,67.3,48.6,30.19,East,92,0.0,1.0,51,0.00,,,0.00,0,WxPro DR1,2013-05-04 01:21:00,
2013-05-03 21:26:00,66.7,48.5,30.19,East,87,0.0,2.0,52,0.00,,,0.00,0,WxPro DR1,2013-05-04 01:26:00,
2013-05-03 21:31:00,66.1,48.2,30.20,East,87,0.0,2.0,53,0.00,,,0.00,0,WxPro DR1,2013-05-04 01:31:00,
2013-05-03 21:36:00,65.6,48.2,30.20,East,87,0.0,1.0,54,0.00,,,0.00,0,WxPro DR1,2013-05-04 01:36:00,
2013-05-03 21:41:00,65.1,48.6,30.20,East,87,0.0,1.0,55,0.00,,,0.00,0,WxPro DR1,2013-05-04 01:41:00,
2013-05-03 21:46:00,64.8,48.7,30.20,East,87,0.0,1.0,56,0.00,,,0.00,0,WxPro DR1,2013-05-04 01:46:00,
2013-05-03 21:51:00,64.3,48.9,30.20,East,88,0.0,2.0,57,0.00,,,0.00,0,WxPro DR1,2013-05-04 01:51:00,
2013-05-03 21:56:00,63.9,49.3,30.20,East,87,0.0,2.0,59,0.00,,,0.00,0,WxPro DR1,2013-05-04 01:56:00,
2013-05-03 22:01:00,63.4,49.3,30.19,East,87,0.0,1.0,60,0.00,,,0.00,0,WxPro DR1,2013-05-04 02:01:00,
2013-05-03 22:06:00,62.9,49.7,30.20,East,88,0.0,1.0,62,0.00,,,0.00,0,WxPro DR1,2013-05-04 02:06:00,
2013-05-03 22:11:00,62.4,49.2,30.20,East,88,0.0,0.0,62,0.00,,,0.00,0,WxPro DR1,2013-05-04 02:11:00,
2013-05-03 22:16:00,62.0,49.7,30.20,East,88,0.0,0.0,64,0.00,,,0.00,0,WxPro DR1,2013-05-04 02:16:00,
2013-05-03 22:21:00,61.6,49.7,30.20,East,88,0.0,0.0,65,0.00,,,0.00,0,WxPro DR1,2013-05-04 02:21:00,
2013-05-03 22:26:00,61.4,49.9,30.20,East,87,0.0,0.0,66,0.00,,,0.00,0,WxPro DR1,2013-05-04 02:26:00,
2013-05-03 22:31:00,61.1,50.1,30.20,East,88,0.0,0.0,67,0.00,,,0.00,0,WxPro DR1,2013-05-04 02:31:00,
2013-05-03 22:36:00,60.8,50.1,30.20,East,88,0.0,1.0,68,0.00,,,0.00,0,WxPro DR1,2013-05-04 02:36:00,
2013-05-03 22:41:00,60.3,49.7,30.20,East,88,0.0,1.0,68,0.00,,,0.00,0,WxPro DR1,2013-05-04 02:41:00,
2013-05-03 22:46:00,60.1,50.5,30.20,East,88,0.0,0.0,71,0.00,,,0.00,0,WxPro DR1,2013-05-04 02:46:00,
2013-05-03 22:51:00,59.8,50.8,30.19,East,88,0.0,0.0,72,0.00,,,0.00,0,WxPro DR1,2013-05-04 02:51:00,
2013-05-03 22:56:00,59.5,51.0,30.19,East,88,0.0,1.0,73,0.00,,,0.00,0,WxPro DR1,2013-05-04 02:56:00,
2013-05-03 23:01:00,59.2,51.3,30.19,East,87,0.0,1.0,75,0.00,,,0.00,0,WxPro DR1,2013-05-04 03:01:00,
2013-05-03 23:06:00,59.0,51.4,30.19,East,88,0.0,0.0,76,0.00,,,0.00,0,WxPro DR1,2013-05-04 03:06:00,
2013-05-03 23:11:00,58.7,51.2,30.19,East,88,0.0,0.0,76,0.00,,,0.00,0,WxPro DR1,2013-05-04 03:11:00,
2013-05-03 23:16:00,58.4,51.2,30.19,East,87,0.0,1.0,77,0.00,,,0.00,0,WxPro DR1,2013-05-04 03:16:00,
2013-05-03 23:21:00,58.3,50.8,30.19,East,88,0.0,2.0,76,0.00,,,0.00,0,WxPro DR1,2013-05-04 03:21:00,
2013-05-03 23:26:00,58.4,50.0,30.19,East,86,1.0,2.0,73,0.00,,,0.00,0,WxPro DR1,2013-05-04 03:26:00,
2013-05-03 23:31:00,58.9,48.6,30.19,East,83,0.0,3.0,69,0.00,,,0.00,0,WxPro DR1,2013-05-04 03:31:00,
2013-05-03 23:36:00,59.4,48.0,30.19,East,87,1.0,3.0,66,0.00,,,0.00,0,WxPro DR1,2013-05-04 03:36:00,
2013-05-03 23:41:00,59.8,48.5,30.19,East,87,0.0,2.0,66,0.00,,,0.00,0,WxPro DR1,2013-05-04 03:41:00,
2013-05-03 23:46:00,59.8,48.4,30.19,East,86,0.0,1.0,66,0.00,,,0.00,0,WxPro DR1,2013-05-04 03:46:00,
2013-05-03 23:51:00,59.5,48.2,30.19,East,87,0.0,1.0,66,0.00,,,0.00,0,WxPro DR1,2013-05-04 03:51:00,
2013-05-03 23:56:00,59.2,47.6,30.19,East,87,0.0,1.0,65,0.00,,,0.00,0,WxPro DR1,2013-05-04 03:56:00,